Volver al catálogo

COSMOS 2413

GLONASS

ActivoNavegaciónMEO
NORAD 28508·PAYLOAD·🇷🇺 Russia

Lanzado Dec 26, 2004 desde Baikonur Cosmodrome

Loading…

Próximos Pases (próximas 24 horas)

TLE

ActualizadoSource: Space-Track

Época: Sep 13, 2026, 11:05 UTC

1 28508U 04053A   26256.46187682 -.00000030  00000-0  00000-0 0  9992
2 28508  64.2755  57.1375 0005501 231.6057 135.6711  2.13103485169015

Sigue COSMOS 2413 en tiempo real con AllMySat

Download on the App Store